Meteo orario Kozino

Oggi, 6 Marzo, Sabato

Tempo Temperatura Precipitazioni Vento Pressione Umidità
00:00 -10°C° 0 mm 2 m/s 747 mm Hg 93%
01:00 -12°C° 0 mm 2 m/s 747 mm Hg 93%
02:00 -12°C° 0 mm 2 m/s 748 mm Hg 94%
03:00 -12°C° 0 mm 2 m/s 748 mm Hg 94%
04:00 -10°C° 0 mm 2 m/s 748 mm Hg 93%
05:00 -10°C° 0 mm 2 m/s 748 mm Hg 93%
06:00 -10°C° 0.1 mm 2 m/s 748 mm Hg 91%
07:00 -9°C° 0.1 mm 2 m/s 748 mm Hg 90%
08:00 -9°C° 0.1 mm 3 m/s 748 mm Hg 89%
09:00 -9°C° 0 mm 3 m/s 748 mm Hg 83%
10:00 -8°C° 0 mm 3 m/s 748 mm Hg 78%
11:00 -8°C° 0 mm 3 m/s 748 mm Hg 73%
12:00 -7°C° 0 mm 3 m/s 748 mm Hg 71%
13:00 -7°C° 0 mm 3 m/s 748 mm Hg 68%
14:00 -6°C° 0 mm 3 m/s 747 mm Hg 66%
15:00 -6°C° 0 mm 2 m/s 747 mm Hg 70%
16:00 -7°C° 0 mm 2 m/s 746 mm Hg 75%
17:00 -8°C° 0 mm 2 m/s 746 mm Hg 79%
18:00 -8°C° 0 mm 2 m/s 746 mm Hg 79%
19:00 -9°C° 0 mm 3 m/s 745 mm Hg 80%
20:00 -10°C° 0 mm 4 m/s 745 mm Hg 80%
21:00 -9°C° 0 mm 4 m/s 743 mm Hg 80%
22:00 -10°C° 0 mm 5 m/s 742 mm Hg 80%
23:00 -10°C° 0 mm 5 m/s 741 mm Hg 80%

Domani, 7 Marzo, Domenica

Tempo Temperatura Precipitazioni Vento Pressione Umidità
00:00 -9°C° 0.3 mm 6 m/s 740 mm Hg 84%
01:00 -9°C° 0.3 mm 6 m/s 739 mm Hg 87%
02:00 -9°C° 0.3 mm 6 m/s 738 mm Hg 90%
03:00 -9°C° 0.4 mm 6 m/s 737 mm Hg 90%
04:00 -8°C° 0.4 mm 6 m/s 735 mm Hg 91%
05:00 -8°C° 0.4 mm 6 m/s 734 mm Hg 92%
06:00 -8°C° 0.4 mm 6 m/s 733 mm Hg 92%
07:00 -8°C° 0.4 mm 6 m/s 731 mm Hg 92%
08:00 -8°C° 0.4 mm 6 m/s 730 mm Hg 92%
09:00 -6°C° 0.6 mm 6 m/s 729 mm Hg 92%
10:00 -5°C° 0.6 mm 6 m/s 729 mm Hg 92%
11:00 -5°C° 0.6 mm 6 m/s 728 mm Hg 92%
12:00 -5°C° 0.4 mm 6 m/s 728 mm Hg 88%
13:00 -7°C° 0.4 mm 7 m/s 729 mm Hg 83%
14:00 -8°C° 0.4 mm 7 m/s 729 mm Hg 78%
15:00 -9°C° 0 mm 6 m/s 729 mm Hg 76%
16:00 -9°C° 0 mm 4 m/s 730 mm Hg 75%
17:00 -8°C° 0 mm 3 m/s 730 mm Hg 73%
18:00 -8°C° 0.2 mm 3 m/s 731 mm Hg 79%
19:00 -8°C° 0.2 mm 3 m/s 731 mm Hg 86%
20:00 -7°C° 0.2 mm 2 m/s 731 mm Hg 92%
21:00 -8°C° 0.1 mm 2 m/s 731 mm Hg 93%
22:00 -9°C° 0.1 mm 2 m/s 731 mm Hg 93%
23:00 -8°C° 0.1 mm 1 m/s 730 mm Hg 94%

Dopodomani, 8 Marzo, Lunedi

Tempo Temperatura Precipitazioni Vento Pressione Umidità
00:00 -10°C° 0.1 mm 2 m/s 731 mm Hg 93%
01:00 -10°C° 0.1 mm 2 m/s 731 mm Hg 92%
02:00 -12°C° 0.1 mm 2 m/s 731 mm Hg 91%
03:00 -13°C° 0 mm 3 m/s 732 mm Hg 89%
04:00 -14°C° 0 mm 3 m/s 732 mm Hg 87%
05:00 -15°C° 0 mm 4 m/s 732 mm Hg 85%
06:00 -15°C° 0 mm 4 m/s 733 mm Hg 86%
07:00 -14°C° 0 mm 5 m/s 734 mm Hg 86%
08:00 -13°C° 0 mm 5 m/s 734 mm Hg 86%
09:00 -12°C° 0.1 mm 5 m/s 735 mm Hg 86%
10:00 -11°C° 0.1 mm 5 m/s 736 mm Hg 87%
11:00 -10°C° 0.1 mm 5 m/s 736 mm Hg 87%
12:00 -10°C° 0.1 mm 5 m/s 737 mm Hg 85%
13:00 -11°C° 0.1 mm 5 m/s 738 mm Hg 84%
14:00 -11°C° 0.1 mm 5 m/s 739 mm Hg 82%
15:00 -11°C° 0 mm 5 m/s 739 mm Hg 83%
16:00 -11°C° 0 mm 4 m/s 740 mm Hg 85%
17:00 -12°C° 0 mm 4 m/s 740 mm Hg 86%
18:00 -14°C° 0 mm 4 m/s 741 mm Hg 87%
19:00 -14°C° 0 mm 4 m/s 742 mm Hg 88%
20:00 -15°C° 0 mm 4 m/s 743 mm Hg 90%
21:00 -16°C° 0 mm 4 m/s 743 mm Hg 90%
22:00 -16°C° 0 mm 3 m/s 744 mm Hg 90%
23:00 -16°C° 0 mm 3 m/s 745 mm Hg 90%

9 Marzo, Martedi

Tempo Temperatura Precipitazioni Vento Pressione Umidità
00:00 -17°C° 0 mm 3 m/s 745 mm Hg 91%
01:00 -18°C° 0 mm 3 m/s 745 mm Hg 92%
02:00 -19°C° 0 mm 3 m/s 746 mm Hg 93%
03:00 -19°C° 0 mm 3 m/s 746 mm Hg 93%
04:00 -21°C° 0 mm 3 m/s 747 mm Hg 94%
05:00 -22°C° 0 mm 3 m/s 747 mm Hg 95%
06:00 -22°C° 0 mm 3 m/s 748 mm Hg 93%
07:00 -21°C° 0 mm 3 m/s 748 mm Hg 91%
08:00 -21°C° 0 mm 3 m/s 749 mm Hg 90%
09:00 -18°C° 0 mm 2 m/s 749 mm Hg 84%
10:00 -16°C° 0 mm 2 m/s 749 mm Hg 79%
11:00 -15°C° 0 mm 2 m/s 749 mm Hg 74%
12:00 -14°C° 0 mm 2 m/s 749 mm Hg 72%
13:00 -13°C° 0 mm 2 m/s 748 mm Hg 70%
14:00 -12°C° 0 mm 2 m/s 748 mm Hg 68%
15:00 -10°C° 0 mm 1 m/s 748 mm Hg 76%
16:00 -10°C° 0 mm 1 m/s 748 mm Hg 84%
17:00 -11°C° 0 mm 0 m/s 747 mm Hg 91%
18:00 -11°C° 0.1 mm 1 m/s 747 mm Hg 93%
19:00 -12°C° 0.1 mm 1 m/s 747 mm Hg 94%
20:00 -14°C° 0.1 mm 2 m/s 747 mm Hg 95%
21:00 -15°C° 0 mm 2 m/s 748 mm Hg 95%
22:00 -16°C° 0 mm 2 m/s 748 mm Hg 96%
23:00 -17°C° 0 mm 2 m/s 748 mm Hg 96%

10 Marzo, Mercoledi

Tempo Temperatura Precipitazioni Vento Pressione Umidità
00:00 -18°C° 0 mm 2 m/s 748 mm Hg 95%
01:00 -18°C° 0 mm 2 m/s 748 mm Hg 95%
02:00 -19°C° 0 mm 2 m/s 748 mm Hg 95%
03:00 -19°C° 0 mm 2 m/s 748 mm Hg 95%
04:00 -20°C° 0 mm 2 m/s 748 mm Hg 94%
05:00 -20°C° 0 mm 2 m/s 748 mm Hg 94%
06:00 -20°C° 0.1 mm 2 m/s 748 mm Hg 93%
07:00 -19°C° 0.1 mm 2 m/s 748 mm Hg 93%
08:00 -19°C° 0.1 mm 2 m/s 748 mm Hg 92%
09:00 -18°C° 0 mm 2 m/s 748 mm Hg 90%
10:00 -17°C° 0 mm 2 m/s 748 mm Hg 88%
11:00 -15°C° 0 mm 2 m/s 748 mm Hg 86%
12:00 -15°C° 0 mm 2 m/s 748 mm Hg 86%
13:00 -15°C° 0 mm 3 m/s 747 mm Hg 86%
14:00 -14°C° 0 mm 3 m/s 747 mm Hg 86%
15:00 -14°C° 0.1 mm 3 m/s 747 mm Hg 89%
16:00 -14°C° 0.1 mm 3 m/s 746 mm Hg 91%
17:00 -14°C° 0.1 mm 3 m/s 746 mm Hg 93%
18:00 -14°C° 0.2 mm 3 m/s 746 mm Hg 93%
19:00 -14°C° 0.2 mm 3 m/s 745 mm Hg 94%
20:00 -14°C° 0.2 mm 3 m/s 745 mm Hg 94%
21:00 -14°C° 0.1 mm 3 m/s 745 mm Hg 94%
22:00 -12°C° 0.1 mm 2 m/s 744 mm Hg 95%
23:00 -12°C° 0.1 mm 2 m/s 743 mm Hg 95%

11 Marzo, Giovedi

Tempo Temperatura Precipitazioni Vento Pressione Umidità
00:00 -10°C° 0.1 mm 2 m/s 743 mm Hg 95%
01:00 -10°C° 0.1 mm 2 m/s 742 mm Hg 96%
02:00 -9°C° 0.1 mm 2 m/s 742 mm Hg 96%
03:00 -8°C° 0.1 mm 2 m/s 741 mm Hg 95%
04:00 -9°C° 0.1 mm 3 m/s 740 mm Hg 95%
05:00 -8°C° 0.1 mm 3 m/s 739 mm Hg 95%
06:00 -9°C° 0.2 mm 4 m/s 739 mm Hg 94%
07:00 -8°C° 0.2 mm 4 m/s 738 mm Hg 93%
08:00 -8°C° 0.2 mm 4 m/s 737 mm Hg 93%
09:00 -7°C° 0.3 mm 5 m/s 736 mm Hg 93%
10:00 -6°C° 0.3 mm 5 m/s 735 mm Hg 93%
11:00 -5°C° 0.3 mm 6 m/s 734 mm Hg 93%
12:00 -5°C° 0.5 mm 6 m/s 733 mm Hg 94%
13:00 -4°C° 0.5 mm 6 m/s 732 mm Hg 94%
14:00 -3°C° 0.5 mm 7 m/s 730 mm Hg 94%
15:00 -3°C° 0.8 mm 6 m/s 729 mm Hg 95%
16:00 -3°C° 0.8 mm 6 m/s 728 mm Hg 96%
17:00 -3°C° 0.8 mm 6 m/s 727 mm Hg 97%
18:00 -3°C° 0.9 mm 6 m/s 726 mm Hg 97%
19:00 -2°C° 0.9 mm 6 m/s 724 mm Hg 97%
20:00 -2°C° 0.9 mm 6 m/s 723 mm Hg 97%
21:00 -1°C° 0.7 mm 6 m/s 722 mm Hg 97%
22:00 -1°C° 0.7 mm 6 m/s 721 mm Hg 98%
23:00 +1°C° 0.7 mm 5 m/s 720 mm Hg 98%
Mostrare altro